Flag Weather past 2 weeks in Christchurch, New Zealand

Now
66 °F

Mild.


Feels Like: 66 °F
Forecast: 44 / 59 °F
Wind: 25 mph from Northwest

Location: Christchurch Airport

Current Time: Nov 29, 2014 at 7:25:11 PM

Latest Report: Nov 29, 2014 at 6:30 PM


Visibility: N/A

Pressure: 29.42 "Hg

Humidity: 24%

Dew point: 28 °F

Location of ChristchurchLocation

Historic Weather in Christchurch — Graph

°F

Christchurch temperature yesterday

Maximum temperature yesterday: 57 °F (at 12:00 AM)
Minimum temperature yesterday: 46 °F (at 5:00 AM)
Average temperature yesterday: 50 °F

Past Weeks' High & Low Weather Summary

 TemperatureHumidityPressure
High84 °F (Nov 22, 12:00 PM)100% (Nov 18, 1:30 AM)30.04 "Hg (Nov 18, 1:30 AM)
Low32 °F (Nov 20, 5:30 AM)18% (Nov 27, 2:00 PM)28.94 "Hg (Nov 15, 5:30 AM)
Average59 °F60%29.56 "Hg
* Reported Nov 14 6:00 PM — Nov 29 6:30 PM, Christchurch, Weather by CustomWeather, © 2014

Note: Actual official high and low records may vary slightly from our data, if they occured in-between our weather recording intervals... More about our weather records

Advertising

Christchurch weather history for previous 24 hours

 ConditionsComfort  
Time TempWeatherWind HumidityBarometerVisibility
6:30 PM
Nov 29
66 °FMild.25 mph24%29.42 "HgN/A
6:00 PM66 °FMild.24 mph32%29.42 "HgN/A
5:30 PM68 °FMild.25 mph30%29.42 "HgN/A
5:00 PM70 °FMild.20 mph31%29.42 "HgN/A
4:30 PM70 °FMild.14 mph31%29.45 "HgN/A
4:00 PM64 °FMild.17 mph56%29.47 "HgN/A
3:30 PM64 °FMild.17 mph56%29.47 "HgN/A
3:00 PM63 °FMild.17 mph52%29.47 "HgN/A
2:30 PM63 °FMild.16 mph52%29.50 "HgN/A
2:00 PM63 °FMild.14 mph56%29.53 "HgN/A
1:30 PM63 °FMild.12 mph56%29.53 "HgN/A
1:00 PM63 °FMild.10 mph56%29.56 "HgN/A
12:30 PM61 °FRefreshingly cool.8 mph59%29.56 "HgN/A
12:00 PM59 °FRefreshingly cool.9 mph59%29.56 "HgN/A
11:30 AM59 °FRefreshingly cool.7 mph59%29.59 "HgN/A
11:00 AM57 °FPassing clouds.9 mph63%29.59 "HgN/A
10:30 AM55 °FScattered clouds.8 mph67%29.62 "HgN/A
10:00 AM55 °FPassing clouds.10 mph77%29.62 "HgN/A
9:30 AM52 °FPartly sunny.10 mph82%29.62 "HgN/A
9:00 AM52 °FCool.8 mph82%29.62 "HgN/A
8:30 AM48 °FScattered clouds.6 mph94%29.62 "HgN/A
8:00 AM48 °FBroken clouds.6 mph94%29.62 "HgN/A
7:30 AM48 °FBroken clouds.6 mph94%29.62 "HgN/A
7:00 AM46 °FPartly sunny.3 mph100%29.62 "HgN/A
6:30 AM46 °FMostly cloudy.7 mph93%29.65 "HgN/A
6:00 AM46 °FPartly sunny.7 mph93%29.62 "HgN/A
5:30 AM46 °FPartly cloudy.9 mph93%29.62 "HgN/A
5:00 AM46 °FPassing clouds.5 mph100%29.65 "HgN/A
4:30 AM46 °FMostly cloudy.5 mph100%29.65 "HgN/A
4:00 AM46 °FSprinkles. Passing clouds.5 mph100%29.65 "HgN/A
3:30 AM46 °FScattered showers. Overcast.5 mph100%29.65 "HgN/A
3:00 AM48 °FSprinkles. Partly cloudy.3 mph94%29.65 "HgN/A
2:30 AM46 °FPartly cloudy.2 mph100%29.68 "Hg3 mi
2:00 AM48 °FDrizzle. Mostly cloudy.1 mph94%29.68 "HgN/A
1:30 AM48 °FScattered showers. Overcast.2 mph94%29.68 "HgN/A
1:00 AM48 °FSprinkles. Overcast.3 mph87%29.68 "HgN/A
12:30 AM48 °FSprinkles. Mostly cloudy.2 mph94%29.68 "HgN/A
12:00 AM46 °FDrizzle. Overcast.3 mph100%29.71 "HgN/A
11:30 PM
Nov 28
48 °FLight rain. Passing clouds.3 mph94%29.71 "HgN/A
11:00 PM48 °FSprinkles. Passing clouds.3 mph94%29.71 "HgN/A
10:30 PM48 °FSprinkles. Passing clouds.3 mph94%29.71 "HgN/A
10:00 PM48 °FSprinkles. Partly cloudy.3 mph94%29.68 "HgN/A
9:30 PM48 °FSprinkles. Passing clouds.3 mph94%29.68 "HgN/A
9:00 PM48 °FSprinkles. Overcast.2 mph94%29.68 "HgN/A
8:30 PM48 °FSprinkles. Mostly cloudy.2 mph94%29.68 "HgN/A
8:00 PM48 °FSprinkles. Overcast.6 mph94%29.65 "HgN/A
7:30 PM48 °FSprinkles. Broken clouds.3 mph94%29.65 "HgN/A
7:00 PM50 °FSprinkles. Broken clouds.6 mph82%29.65 "HgN/A
Weather by CustomWeather, © 2014

See weather overviewHow to use our weather pages